Date String (YYYY-MM-DD hh:mm:ss) UTC,Instrument flags,Ambient pressure (hPa),Sample flow (lpm),Bypass flow (lpm),Sample temperature (°C),Ambient temperature (°C),ASC tube jacket temperature (°C),LED temperature (°C),Box temperature (°C),Sample RH (%),Span deviation,Mass concentration (μg/m³),Mass concentration (μg/m³),Mass concentration (μg/m³)
DateTimeUTC,F1_M11,P_M11,Q1_M11,Q2_M11,T1_M11,T2_M11,T3_M11,T4_M11,T5_M11,U1_M11,ZSPAN_M11,X2_M11,X0_M11,X1_M11
2022-02-05 10:00:00,,0826.5,5.01,0.00,22.1,21.4,00.0,31.2,23.8,05.5,0000.0,0000.38,0004.10,0000.25
2022-02-05 10:01:00,,0826.4,4.99,0.00,22.1,21.4,00.0,31.1,23.7,05.4,0000.0,0000.39,0004.12,0000.25
2022-02-05 10:02:00,,0826.4,5.00,0.00,22.1,21.4,00.0,31.1,23.7,05.3,0000.0,0000.38,0004.10,0000.25
2022-02-05 10:03:00,,0826.4,5.00,0.00,22.0,21.4,00.0,31.1,23.7,05.3,0000.0,0000.35,0004.04,0000.25
2022-02-05 10:04:00,,0826.4,5.00,0.00,22.0,21.3,00.0,31.1,23.7,05.2,0000.0,0000.33,0004.01,0000.25
2022-02-05 10:05:00,,0826.4,5.01,0.00,22.0,21.3,00.0,31.1,23.7,05.3,0000.0,0000.33,0004.01,0000.25
2022-02-05 10:06:00,,0826.4,5.01,0.00,22.0,21.8,00.0,31.1,23.8,05.7,0000.0,0000.33,0004.01,0000.25
2022-02-05 10:07:00,,0826.5,4.99,0.00,22.2,22.6,00.0,31.1,24.0,06.5,0000.0,0000.35,0003.71,0000.26
2022-02-05 10:08:00,,0826.4,5.01,0.00,22.3,23.3,00.0,31.2,24.3,06.4,0000.0,0000.35,0002.88,0000.26
2022-02-05 10:09:00,,0826.3,4.98,0.00,22.4,23.2,00.0,31.2,24.4,06.3,0000.0,0000.35,0002.54,0000.25
2022-02-05 10:10:00,,0826.2,5.00,0.00,22.4,22.9,00.0,31.2,24.3,05.7,0000.0,0000.34,0000.82,0000.25
2022-02-05 10:11:00,,0826.3,5.00,0.00,22.4,22.6,00.0,31.3,24.2,06.3,0000.0,0000.35,0000.53,0000.25
2022-02-05 10:12:00,,0826.1,5.02,0.00,22.4,22.4,00.0,31.3,24.1,05.7,0000.0,0000.35,0000.51,0000.25
2022-02-05 10:13:00,,0826.2,4.99,0.00,22.4,22.2,00.0,31.3,24.1,05.4,0000.0,0000.35,0000.52,0000.25
2022-02-05 10:14:00,,0826.3,5.00,0.00,22.3,22.0,00.0,31.3,24.0,05.6,0000.0,0000.34,0000.50,0000.24
2022-02-05 10:15:00,,0826.4,5.01,0.00,22.3,21.9,00.0,31.3,24.0,05.3,0000.0,0000.34,0000.49,0000.24
2022-02-05 10:16:00,,0826.5,4.99,0.00,22.3,21.8,00.0,31.3,23.9,05.8,0000.0,0000.35,0000.52,0000.24
2022-02-05 10:17:00,,0826.6,5.01,0.00,22.3,21.7,00.0,31.3,23.9,06.2,0000.0,0000.37,0000.58,0000.24
2022-02-05 10:18:00,,0826.6,5.00,0.00,22.2,21.6,00.0,31.3,23.9,06.6,0000.0,0000.41,0000.65,0000.27
2022-02-05 10:19:00,,0826.6,4.99,0.00,22.2,21.5,00.0,31.2,23.8,07.9,0000.0,0000.88,0001.33,0000.69
2022-02-05 10:20:00,,0826.6,5.01,0.00,22.1,21.4,00.0,31.2,23.8,08.1,0000.0,0001.46,0002.08,0001.23
2022-02-05 10:21:00,,0826.4,4.99,0.00,22.1,21.4,00.0,31.2,23.7,08.0,0000.0,0002.01,0002.80,0001.74
2022-02-05 10:22:00,,0826.5,5.02,0.00,22.1,21.3,00.0,31.2,23.7,08.0,0000.0,0002.55,0003.57,0002.23
2022-02-05 10:23:00,,0826.4,4.98,0.00,22.0,21.2,00.0,31.2,23.6,07.9,0000.0,0003.06,0004.33,0002.69
2022-02-05 10:24:00,,0826.4,5.01,0.00,22.0,21.2,00.0,31.1,23.6,07.8,0000.0,0003.34,0004.97,0003.08
2022-02-05 10:25:00,,0826.5,4.98,0.00,22.0,21.2,00.0,31.1,23.5,07.9,0000.0,0003.61,0006.30,0003.33
2022-02-05 10:26:00,,0826.5,5.01,0.00,22.0,21.2,00.0,31.1,23.6,07.6,0000.0,0003.87,0007.26,0003.54
2022-02-05 10:27:00,,0826.5,5.00,0.00,22.0,21.2,00.0,31.1,23.6,07.5,0000.0,0004.04,0008.12,0003.70
2022-02-05 10:28:00,,0826.5,5.01,0.00,22.0,21.8,00.0,31.1,23.7,07.4,0000.0,0004.14,0008.55,0003.79
2022-02-05 10:29:00,,0826.4,4.99,0.00,22.2,22.6,00.0,31.1,24.0,07.3,0000.0,0004.18,0008.58,0003.84
2022-02-05 10:30:00,,0826.2,5.00,0.00,22.3,23.2,00.0,31.2,24.3,07.0,0000.0,0003.96,0008.30,0003.64
2022-02-05 10:31:00,,0826.1,5.01,0.00,22.4,23.0,00.0,31.2,24.3,06.4,0000.0,0003.67,0007.94,0003.35
2022-02-05 10:32:00,,0826.2,5.00,0.00,22.4,22.7,00.0,31.2,24.2,05.6,0000.0,0003.39,0007.58,0003.01
2022-02-05 10:33:00,,0826.1,4.99,0.00,22.3,22.4,00.0,31.2,24.1,05.8,0000.0,0003.03,0006.96,0002.51
2022-02-05 10:34:00,,0826.1,5.02,0.00,22.3,22.1,00.0,31.2,24.0,06.5,0000.0,0002.53,0006.23,0002.09
2022-02-05 10:35:00,,0826.1,5.00,0.00,22.3,21.9,00.0,31.2,23.9,06.8,0000.0,0002.07,0005.59,0001.68
2022-02-05 10:36:00,,0826.1,5.02,0.00,22.2,21.8,00.0,31.2,23.9,06.1,0000.0,0001.65,0004.59,0001.33
2022-02-05 10:37:00,,0826.1,5.00,0.00,22.2,21.6,00.0,31.2,23.8,06.1,0000.0,0001.20,0003.47,0000.94
2022-02-05 10:38:00,,0826.0,4.99,0.00,22.2,21.5,00.0,31.2,23.8,06.4,0000.0,0000.82,0002.21,0000.60
2022-02-05 10:39:00,,0825.8,5.01,0.00,22.1,21.3,00.0,31.2,23.7,06.5,0000.0,0000.61,0001.00,0000.43
2022-02-05 10:40:00,,0825.7,5.00,0.00,22.1,21.2,00.0,31.2,23.7,07.0,0000.0,0000.45,0000.80,0000.28
2022-02-05 10:41:00,,0825.8,5.01,0.00,22.1,21.1,00.0,31.2,23.7,07.2,0000.0,0000.35,0000.69,0000.20
2022-02-05 10:42:00,,0825.7,5.00,0.00,22.0,21.0,00.0,31.1,23.6,06.9,0000.0,0000.33,0000.64,0000.20
2022-02-05 10:43:00,,0825.7,5.00,0.00,22.0,21.0,00.0,31.1,23.6,07.6,0000.0,0000.33,0001.49,0000.22
2022-02-05 10:44:00,,0825.7,5.01,0.00,22.0,21.5,00.0,31.1,23.7,07.1,0000.0,0000.39,0002.00,0000.24
2022-02-05 10:45:00,,0825.7,5.00,0.00,22.2,22.4,00.0,31.2,24.0,07.1,0000.0,0000.46,0002.81,0000.25
2022-02-05 10:46:00,,0825.8,5.01,0.00,22.3,23.0,00.0,31.2,24.2,07.1,0000.0,0000.48,0003.31,0000.26
2022-02-05 10:47:00,,0825.8,4.99,0.00,22.3,22.7,00.0,31.2,24.2,07.1,0000.0,0000.50,0003.35,0000.27
2022-02-05 10:48:00,,0825.8,5.00,0.00,22.3,22.4,00.0,31.2,24.1,07.3,0000.0,0000.55,0003.86,0000.27
2022-02-05 10:49:00,,0825.7,5.01,0.00,22.3,22.0,00.0,31.2,24.0,07.0,0000.0,0000.59,0004.20,0000.29
2022-02-05 10:50:00,,0825.8,4.99,0.00,22.3,21.7,00.0,31.2,23.9,06.8,0000.0,0000.61,0004.27,0000.30
2022-02-05 10:51:00,,0825.8,5.01,0.00,22.2,21.5,00.0,31.2,23.9,06.9,0000.0,0000.64,0004.34,0000.30
2022-02-05 10:52:00,,0826.1,4.99,0.00,22.2,21.3,00.0,31.2,23.8,06.6,0000.0,0000.64,0004.28,0000.30
2022-02-05 10:53:00,,0826.1,5.00,0.00,22.2,21.2,00.0,31.2,23.8,06.7,0000.0,0000.64,0004.26,0000.30
2022-02-05 10:54:00,,0826.0,4.99,0.00,22.1,21.1,00.0,31.1,23.7,06.5,0000.0,0000.62,0003.26,0000.29
2022-02-05 10:55:00,,0826.1,5.02,0.00,22.1,21.1,00.0,31.1,23.6,05.9,0000.0,0000.59,0002.90,0000.29
2022-02-05 10:56:00,,0826.1,5.00,0.00,22.1,21.9,00.0,31.2,23.8,06.3,0000.0,0000.53,0002.08,0000.28
2022-02-05 10:57:00,,0826.0,5.00,0.00,22.3,22.8,00.0,31.2,24.1,06.1,0000.0,0000.53,0001.68,0000.28
2022-02-05 10:58:00,,0826.1,4.99,0.00,22.4,23.1,00.0,31.3,24.3,06.0,0000.0,0000.53,0001.69,0000.29
2022-02-05 10:59:00,,0826.1,5.01,0.00,22.4,22.8,00.0,31.3,24.2,06.2,0000.0,0000.52,0001.48,0000.28
